Terminal Aerodrome Forecast
Issued by NWS Brownsville, TX

Home | Current Version | Previous Version | Text Only | Print | Product List | Glossary On
Versions: 1 2 3 4 5 6 7 8 9 10 11 12 13 14 15 16 17 18 19
000
FTUS44 KBRO 211700
TAFHRL
TAF
KHRL 211725Z 2118/2218 35007KT P6SM VCSH SCT020 BKN040
      TEMPO 2118/2121 4SM TSRA BKN020CB
     FM212100 04010KT P6SM SCT035 BKN100
     FM220200 08008KT P6SM FEW025 BKN250
     FM221000 02004KT P6SM FEW025 SCT250=

USA.gov is the U.S. government's official web portal to all federal, state and local government web resources and services.